Flag for Pakistan Weather past 2 weeks in Islamabad, Pakistan

Now
72 °F

Clear.


Feels Like: 75 °F
Forecast: 58 / 91 °F
Wind: 5 mph from Northeast

Location: Islamabad Airport

Current Time: Apr 22, 2015 at 12:36:59 AM

Latest Report: Apr 22, 2015 at 12:00 AM


Visibility: 4 mi

Pressure: 29.83 "Hg

Humidity: 65%

Dew point: 59 °F

Location of IslamabadLocation

Historic Weather in Islamabad — Graph

°F

Islamabad temperature yesterday

Maximum temperature yesterday: 90 °F (at 3:00 PM)
Minimum temperature yesterday: 64 °F (at 4:00 AM)
Average temperature yesterday: 77 °F

Past Weeks' High & Low Weather Summary

 TemperatureHumidityPressure
High91 °F (Apr 12, 4:00 PM)100% (Apr 16, 4:00 AM)30.15 "Hg (Apr 16, 4:00 AM)
Low59 °F (Apr 8, 4:00 AM)30% (Apr 12, 4:00 PM)29.71 "Hg (Apr 18, 3:00 PM)
Average74 °F60%29.93 "Hg
* Reported Midnight between Apr 6 and Apr 7 — Apr 21 11:00 PM, Islamabad, Weather by CustomWeather, © 2015

Note: Actual official high and low records may vary slightly from our data, if they occured in-between our weather recording intervals... More about our weather records

Advertising

Islamabad weather history for previous 24 hours

 ConditionsComfort  
Time TempWeatherWind HumidityBarometerVisibility
11:00 PM
Tue, Apr 21
73 °FClear.5 mph61%29.86 "Hg4 mi
10:00 PM75 °FClear.5 mph57%29.86 "Hg4 mi
8:00 PM81 °FPassing clouds.12 mph42%29.83 "HgN/A
7:00 PM82 °FPassing clouds.12 mph42%29.83 "HgN/A
6:00 PM84 °FPassing clouds.12 mph40%29.80 "HgN/A
5:00 PM86 °FPassing clouds.14 mph38%29.80 "HgN/A
4:00 PM88 °FPassing clouds.12 mph35%29.83 "Hg5 mi
3:00 PM90 °FHaze.14 mph33%29.83 "Hg3 mi
2:00 PM88 °FHaze.14 mph33%29.86 "Hg3 mi
1:00 PM86 °FHaze.12 mph40%29.89 "Hg2 mi
12:00 PM86 °FHaze.9 mph43%29.89 "Hg2 mi
11:00 AM82 °FHaze.12 mph48%29.92 "Hg2 mi
10:00 AM79 °FHaze.5 mph54%29.92 "Hg2 mi
9:00 AM75 °FHaze.5 mph57%29.92 "Hg2 mi
8:00 AM70 °FHaze.5 mph78%29.89 "Hg2 mi
7:00 AM66 °FSunny.No wind78%29.89 "Hg4 mi
6:00 AM64 °FPassing clouds.No wind88%29.86 "Hg4 mi
4:00 AM64 °FClear.No wind78%29.83 "Hg4 mi
3:00 AM66 °FClear.No wind78%29.83 "Hg4 mi
2:00 AM68 °FClear.No wind73%29.83 "Hg4 mi
1:00 AM70 °FClear.No wind69%29.86 "Hg4 mi
12:00 AM72 °FClear.5 mph69%29.86 "Hg4 mi
Weather by CustomWeather, © 2015

See weather overviewHow to use our weather pages